Simultaneous Nadir Overpasses (SNOs) Predictions

Prediction of SNOs between AURA and NPP Satellite Orbit:

Table of predicted SNOs for the next 14.0 days since TLE Epoch: 3/24/2018
Index Date (AURA) Time (AURA) Lat,Lon (AURA) SZA (AURA ) Date (NPP) Time (NPP) Lat,Lon (NPP) SZA (NPP ) Distance(km) Time Diff (sec)
1 03/24/2018 19:58:34 79.58, 137.90 90.91 03/24/2018 19:58:08 79.57, 137.79 90.95 2.38 26
2 03/24/2018 20:47:55 -79.81, -52.77 89.45 03/24/2018 20:48:46 -79.81, -52.78 89.49 0.20 51
3 03/27/2018 11:27:27 -74.57, 65.71 84.06 03/27/2018 11:26:14 -74.83, 63.96 83.76 59.00 73
4 03/27/2018 12:15:00 79.67,-105.56 89.70 03/27/2018 12:15:01 79.67,-105.56 89.70 0.33 1
5 03/30/2018 03:42:06 -79.54,-158.24 91.16 03/30/2018 03:41:17 -79.54,-158.23 91.13 0.15 49
6 03/30/2018 04:31:25 79.79, 11.24 88.46 03/30/2018 04:31:53 79.80, 11.39 88.41 3.22 28
7 04/01/2018 19:58:32 -79.59, -42.03 92.28 04/01/2018 19:58:11 -79.58, -42.14 92.25 2.44 21
8 04/01/2018 20:47:51 79.84, 127.46 87.33 04/01/2018 20:48:47 79.84, 127.47 87.29 0.32 56
9 04/04/2018 11:25:37 79.43, -94.89 86.92 04/04/2018 11:24:26 79.43, -94.98 86.99 1.76 71
10 04/04/2018 12:14:56 -79.74, 74.96 93.55 04/04/2018 12:15:02 -79.74, 75.05 93.58 1.89 6
11 04/07/2018 03:42:01 79.58, 22.04 85.67 04/07/2018 03:41:17 79.59, 22.16 85.68 2.69 44




NCC Satellite Simultaneous Nadir Overpasses (SNOs) Prediction Service
